TimeEDT,TemperatureF,Dew PointF,Humidity,Sea Level PressureIn,VisibilityMPH,Wind Direction,Wind SpeedMPH,Gust SpeedMPH,PrecipitationIn,Events,Conditions,WindDirDegrees,DateUTC
12:14 AM,48.4,38.3,68,30.20,10.0,SE,4.6,-,N/A,,Clear,140,2013-05-18 04:14:00
12:34 AM,45.5,38.3,76,30.20,10.0,SE,5.8,-,N/A,,Clear,130,2013-05-18 04:34:00
12:55 AM,45.5,39.2,79,30.20,10.0,SE,5.8,-,N/A,,Clear,130,2013-05-18 04:55:00
1:14 AM,46.4,38.5,74,30.19,10.0,ESE,6.9,-,N/A,,Clear,120,2013-05-18 05:14:00
1:34 AM,46.9,38.7,73,30.19,10.0,SE,8.1,-,N/A,,Clear,130,2013-05-18 05:34:00
1:55 AM,48.6,38.5,68,30.18,10.0,ESE,8.1,-,N/A,,Clear,120,2013-05-18 05:55:00
2:14 AM,50.4,38.3,63,30.17,10.0,ESE,6.9,-,N/A,,Clear,120,2013-05-18 06:14:00
2:34 AM,51.6,37.9,60,30.17,10.0,SE,5.8,-,N/A,,Clear,130,2013-05-18 06:34:00
2:55 AM,50.9,37.8,61,30.17,10.0,SE,5.8,-,N/A,,Clear,130,2013-05-18 06:55:00
3:14 AM,45.1,38.3,77,30.18,10.0,ESE,5.8,-,N/A,,Clear,120,2013-05-18 07:14:00
3:34 AM,43.7,37.9,80,30.18,10.0,ESE,5.8,-,N/A,,Clear,120,2013-05-18 07:34:00
3:55 AM,43.7,37.9,80,30.19,10.0,ESE,4.6,-,N/A,,Clear,120,2013-05-18 07:55:00
4:14 AM,43.7,38.1,81,30.20,10.0,East,5.8,-,N/A,,Clear,100,2013-05-18 08:14:00
4:35 AM,45.3,38.5,77,30.20,10.0,East,8.1,-,N/A,,Clear,90,2013-05-18 08:35:00
4:55 AM,45.1,38.5,77,30.20,10.0,East,10.4,-,N/A,,Clear,100,2013-05-18 08:55:00
5:14 AM,44.6,38.3,79,30.20,10.0,East,10.4,-,N/A,,Clear,100,2013-05-18 09:14:00
5:35 AM,46.6,37.8,71,30.19,10.0,ESE,9.2,17.3,N/A,,Clear,110,2013-05-18 09:35:00
5:55 AM,48.4,37.4,66,30.19,10.0,ESE,11.5,17.3,N/A,,Clear,110,2013-05-18 09:55:00
6:14 AM,44.1,37.4,77,30.20,10.0,East,8.1,-,N/A,,Clear,90,2013-05-18 10:14:00
6:35 AM,45.3,37.4,74,30.20,10.0,ESE,9.2,-,N/A,,Clear,110,2013-05-18 10:35:00
6:55 AM,46.9,37.2,69,30.20,10.0,ESE,8.1,-,N/A,,Clear,110,2013-05-18 10:55:00
7:14 AM,49.1,36.7,62,30.20,10.0,ESE,10.4,17.3,N/A,,Clear,110,2013-05-18 11:14:00
7:35 AM,48.6,36.7,64,30.20,10.0,ESE,8.1,-,N/A,,Clear,120,2013-05-18 11:35:00
7:55 AM,48.2,37.4,66,30.21,10.0,ESE,5.8,-,N/A,,Clear,110,2013-05-18 11:55:00
8:14 AM,48.6,38.3,68,30.22,10.0,East,8.1,-,N/A,,Clear,100,2013-05-18 12:14:00
8:35 AM,48.7,38.1,67,30.21,10.0,ESE,9.2,-,N/A,,Clear,110,2013-05-18 12:35:00
8:55 AM,49.1,37.6,64,30.22,10.0,ESE,8.1,-,N/A,,Scattered Clouds,110,2013-05-18 12:55:00
9:14 AM,49.3,38.5,66,30.22,10.0,East,6.9,-,N/A,,Clear,100,2013-05-18 13:14:00
9:35 AM,49.3,38.3,66,30.22,10.0,East,9.2,17.3,N/A,,Scattered Clouds,90,2013-05-18 13:35:00
9:54 AM,49.1,38.3,66,30.21,10.0,East,8.1,-,N/A,,Scattered Clouds,100,2013-05-18 13:54:00
10:14 AM,47.3,38.1,70,30.22,10.0,East,10.4,16.1,N/A,,Mostly Cloudy,90,2013-05-18 14:14:00
10:35 AM,45.7,38.3,75,30.22,10.0,East,8.1,17.3,N/A,,Overcast,100,2013-05-18 14:35:00
10:54 AM,45.1,38.1,76,30.21,10.0,East,10.4,18.4,N/A,,Overcast,100,2013-05-18 14:54:00
11:14 AM,45.7,38.3,75,30.22,10.0,ESE,8.1,-,N/A,,Overcast,110,2013-05-18 15:14:00
11:35 AM,47.8,38.7,70,30.21,10.0,ESE,8.1,-,N/A,,Overcast,110,2013-05-18 15:35:00
11:54 AM,51.3,39.4,64,30.20,10.0,ESE,9.2,-,N/A,,Overcast,110,2013-05-18 15:54:00
12:14 PM,53.4,39.4,59,30.20,10.0,ESE,5.8,-,N/A,,Overcast,110,2013-05-18 16:14:00
12:35 PM,52.2,39.9,63,30.19,10.0,East,6.9,-,N/A,,Overcast,100,2013-05-18 16:35:00
12:54 PM,52.7,40.1,62,30.19,10.0,East,9.2,-,N/A,,Overcast,100,2013-05-18 16:54:00
1:15 PM,53.8,39.7,59,30.18,10.0,East,8.1,-,N/A,,Overcast,100,2013-05-18 17:15:00
1:35 PM,51.8,39.7,63,30.18,10.0,East,8.1,-,N/A,,Overcast,100,2013-05-18 17:35:00
1:54 PM,53.8,40.1,60,30.18,10.0,ESE,6.9,16.1,N/A,,Overcast,110,2013-05-18 17:54:00
2:15 PM,53.2,39.7,60,30.17,10.0,ESE,10.4,-,N/A,,Overcast,110,2013-05-18 18:15:00
2:35 PM,52.7,38.7,59,30.16,10.0,ESE,11.5,17.3,N/A,,Overcast,110,2013-05-18 18:35:00
3:15 PM,50.7,41.2,70,30.16,10.0,ESE,9.2,-,N/A,Rain,Light Rain,110,2013-05-18 19:15:00
3:35 PM,51.8,42.6,71,30.15,10.0,ESE,8.1,-,N/A,Rain,Light Rain,110,2013-05-18 19:35:00
3:54 PM,49.8,41.4,73,30.14,10.0,ESE,8.1,-,N/A,,Overcast,110,2013-05-18 19:54:00
4:15 PM,51.4,41.2,68,30.14,10.0,ESE,8.1,-,N/A,,Overcast,110,2013-05-18 20:15:00
4:35 PM,50.7,40.6,68,30.13,10.0,East,9.2,-,N/A,,Overcast,100,2013-05-18 20:35:00
4:54 PM,52.2,41.0,66,30.12,10.0,East,8.1,17.3,N/A,,Overcast,100,2013-05-18 20:54:00
5:15 PM,49.6,39.7,69,30.11,10.0,ESE,11.5,16.1,N/A,,Overcast,110,2013-05-18 21:15:00
5:34 PM,49.6,39.4,68,30.11,10.0,East,9.2,-,N/A,,Overcast,100,2013-05-18 21:34:00
5:54 PM,48.0,39.2,72,30.11,10.0,East,10.4,16.1,N/A,,Overcast,100,2013-05-18 21:54:00
6:15 PM,48.6,39.4,71,30.10,10.0,East,10.4,16.1,N/A,,Overcast,100,2013-05-18 22:15:00
6:34 PM,48.0,39.2,72,30.10,10.0,East,9.2,-,N/A,,Overcast,100,2013-05-18 22:34:00
6:54 PM,48.2,39.6,72,30.09,10.0,East,9.2,16.1,N/A,,Overcast,100,2013-05-18 22:54:00
7:15 PM,48.4,39.6,72,30.09,10.0,East,9.2,-,N/A,,Overcast,100,2013-05-18 23:15:00
7:34 PM,49.1,39.6,70,30.08,10.0,ESE,10.4,16.1,N/A,,Overcast,110,2013-05-18 23:34:00
7:54 PM,49.6,40.1,70,30.08,10.0,ESE,10.4,-,N/A,,Overcast,110,2013-05-18 23:54:00
8:15 PM,50.0,40.5,70,30.08,10.0,ESE,8.1,-,N/A,,Mostly Cloudy,110,2013-05-19 00:15:00
8:34 PM,49.6,40.5,71,30.08,10.0,ESE,9.2,-,N/A,,Scattered Clouds,110,2013-05-19 00:34:00
8:54 PM,49.5,40.6,72,30.08,10.0,East,9.2,-,N/A,,Mostly Cloudy,100,2013-05-19 00:54:00
9:15 PM,48.7,40.6,74,30.07,10.0,East,10.4,-,N/A,,Mostly Cloudy,100,2013-05-19 01:15:00
9:34 PM,48.6,40.5,74,30.07,10.0,East,10.4,16.1,N/A,,Mostly Cloudy,100,2013-05-19 01:34:00
9:54 PM,49.3,41.0,73,30.06,10.0,ESE,11.5,-,N/A,,Scattered Clouds,110,2013-05-19 01:54:00
10:15 PM,49.3,40.8,73,30.06,10.0,East,12.7,17.3,N/A,,Clear,100,2013-05-19 02:15:00
10:34 PM,50.9,41.0,69,30.06,10.0,ESE,11.5,17.3,N/A,,Mostly Cloudy,110,2013-05-19 02:34:00
10:54 PM,52.2,40.6,65,30.06,10.0,ESE,12.7,16.1,N/A,,Overcast,110,2013-05-19 02:54:00
11:14 PM,53.8,40.3,60,30.05,10.0,ESE,11.5,18.4,N/A,,Overcast,120,2013-05-19 03:14:00
11:34 PM,54.1,40.5,60,30.05,10.0,ESE,10.4,-,N/A,,Overcast,110,2013-05-19 03:34:00